ATLAS 5 CENTAUR DEB, 49359

Orbit data source: Space-Track

ATLAS 5 CENTAUR DEB, 49359 is space debris in HEO originally from a launch on Wed, 17 Oct 2018 UTC launched from the Air Force Eastern Test Range (AFETR). Debris objects in space refer to the collection of defunct objects orbiting the Earth. Examples of debris include non-operational satellites, rocket bodies, and fragments generated from explosions, collisions, or faulty payload assembly.

Loading next visibility...
Identifier
49359, 2018-079FL
Orbit
HEO
Country
Flag of USUS
Related business
Flag of USUnited Launch Alliance/Lockheed Martin (US)
Manufacturer
ULA Decatur
Mission
Spacecraft
Bus & Motor
Unknown
Mass
Unknown
Launch date (UTC)
2018-10-17 (7 years ago)
Launch vehicle
Unknown
Launch site
Air Force Eastern Test Range (AFETR)
Object type
Payload
Rocket body
Debris
Shape & HBR
Unknown shape, 1.1 m
Radar Cross Section
RCS unknown

Expand to show TLE details & history
Last TLE update: 5 days ago

TLE from 5 days ago
0 ATLAS 5 CENTAUR DEB
1 49359U 18079FL  25293.07046595 -.00000114  00000-0  00000-0 0  9999
2 49359  13.0595  44.1267 4700765 302.6979  20.5025  1.87005753 28295
Epoch: 2025-10-20T01:41Z
TLE epoch observation values (Epoch: 2025-10-20T01:41:28.258Z)
Latitude
-0.00004°
Longitude
-10.04609°
Altitude
10,886.138 km
Speed
5.644 km/s
True Right ascension
02h 56m 23s
True Declination
0° 00' 00"
Sunlit
Object was in partial shadow at epoch
Visualization orbit readout
Latitude
Unknown
Longitude
Unknown
Altitude
Unknown
Speed
Unknown
Apparent Right ascension
Unknown
Apparent Declination
Unknown
Sunlit
N/A
Visualization observer readout
Local Sidereal Time
23:24:20
Azimuth
Unknown
Elevation
Unknown
Doppler factor
Unknown
Orbital elements
Apogee altitude
34,535.859 km
Perigee altitude
8,370.271 km
Semi-major axis
27,831.202 km
Eccentricity
0.47008
Inclination
13.0595°
RAAN
44.1267°
Arg. of periapsis
302.6979°
True anomaly
57.60589°
Mean anomaly
20.5025°
Eccentric anomaly
36.53712°
Mean motion
0.46746 °/min
Orbital period
770.12 mins
BSTAR
0
Loading maneuver chart data...
Computing Atmospheric mass density...

Documentation

Showing up to 5 results
|